Regional Weather Roundup
Issued by NWS

Home | Current Version | Previous Version | Text Only | Print | Product List | Glossary On
Versions: 1 2 3 4 5 6 7 8 9 10 11 12 13 14 15 16 17 18 19 20 21 22 23 24 25 26 27 28 29 30 31 32 33 34 35 36 37 38 39 40 41 42 43 44 45 46 47 48 49 50
000
ASUS44 KMEG 301410
RWRTN
TENNESSEE HOURLY STATE WEATHER ROUNDUP
NATIONAL WEATHER SERVICE MEMPHIS TN
900 AM CDT TUE SEP 30 2014

TNZ002-004-019-021-049-052-054-088>092-301500-
WEST TENNESSEE

CITY           SKY/WX    TMP DP  RH WIND       PRES   REMARKS
MEMPHIS INTL   MOSUNNY   74  59  59 CALM      29.96S
NWS MEMPHIS      N/A     67 N/A N/A MISG        N/A
JACKSON        SUNNY     68  62  81 CALM      29.96F
DYERSBURG      SUNNY     68  52  56 CALM      29.98S
UNION CITY     SUNNY     64  61  88 CALM      29.95F
PARIS          SUNNY     72  57  60 CALM      29.97S
HUNTINGDON     SUNNY     66  59  78 CALM      29.96F
LEXINGTON      SUNNY     64  61  88 CALM      29.96S
SAVANNAH       SUNNY     66  66 100 CALM      29.96F
$$

TNZ008-025-027-028-033-062-065-066-301500-
NORTH MIDDLE TENNESSEE

CITY           SKY/WX    TMP DP  RH WIND       PRES   REMARKS
NASHVILLE      SUNNY     70  62  76 CALM      29.97S
DICKSON        SUNNY     72  59  64 CALM      29.97S
PORTLAND       SUNNY     64  59  82 CALM      29.96F
CLARKSVILLE    SUNNY     67  60  78 CALM      29.97R
LEBANON        SUNNY     66  60  81 CALM      29.96R
SMYRNA         SUNNY     68  61  78 SE3       29.98S
MURFREESBORO   SUNNY     69  60  73 S5        29.97S
COOKEVILLE     SUNNY     68  64  88 SW3       29.98S
LIVINGSTON     SUNNY     68  60  75 SW3       30.00S
GALLATIN       SUNNY     63  63 100 CALM      29.98S
CROSSVILLE     SUNNY     70  62  76 CALM      30.02S
$$

TNZ061-075-076-078-094-096-097-301500-
SOUTH MIDDLE TENNESSEE

CITY           SKY/WX    TMP DP  RH WIND       PRES   REMARKS
LEWISBURG      SUNNY     66  60  81 CALM      29.98S
FAYETTEVILLE   CLOUDY    63  63 100 CALM      29.99F VSB 1/2
TULLAHOMA      SUNNY     68  63  83 CALM      30.00S
WINCHESTER     SUNNY     70  64  83 CALM      29.99F
MCMINNVILLE    SUNNY     68  68 100 NW3       29.99S
COLUMBIA       SUNNY     68  68 100 CALM      29.96F
SHELBYVILLE    SUNNY     70  66  88 CALM      29.99S
$$

TNZ017-018-042-046-047-301500-
NORTHEAST TENNESSEE

CITY           SKY/WX    TMP DP  RH WIND       PRES   REMARKS
TRI CITIES     FOG       58  57  97 CALM      30.01S VSB 1/16
ELIZABETHTON   SUNNY     63  57  82 E3        30.01S
$$

TNZ012-013-036-069-073-074-301500-
CENTRAL EAST TENNESSEE

CITY           SKY/WX    TMP DP  RH WIND       PRES   REMARKS
KNOXVILLE      PTSUNNY   67  62  84 SW5       29.99S
OAK RIDGE      CLOUDY    64  62  93 S3        30.01S
GATLINBURG     MOSUNNY   66  57  72 CALM      29.99F
$$

TNZ083-085-099-301500-
SOUTHEAST TENNESSEE

CITY           SKY/WX    TMP DP  RH WIND       PRES   REMARKS
CHATTANOOGA    PTSUNNY   64  63  96 CALM      30.00S FOG
$$

SKY/WX REPORTED AS FAIR MEANS FEW OR NO CLOUDS BELOW
12 THOUSAND FEET.



USA.gov is the U.S. government's official web portal to all federal, state and local government web resources and services.